This is the latest recevied weather packets stored in our database for station/object N5JXS. If no packets are shown the sender has not sent any weather packets the latest 10 day(s).
| Time | Temp. | Humidity | Pressure | Rain* | Wind** | Luminosity | Snow |
|---|---|---|---|---|---|---|---|
| 1788363415 | 21.67° C | 34% | 1027.1 hPa | 0 mm | - | 27 W/m² | - |
| 1788363109 | 21.67° C | 34% | 1026.7 hPa | 0 mm | - | 38 W/m² | - |
| 1788362806 | 21.11° C | 33% | 1026.8 hPa | 0 mm | - | 79 W/m² | - |
| 1788362501 | 21.11° C | 35% | 1027 hPa | 0 mm | - | 87 W/m² | - |
| 1788362196 | 21.11° C | 34% | 1026.8 hPa | 0 mm | - | 26 W/m² | - |
| 1788361891 | 20.56° C | 34% | 1026.8 hPa | 0 mm | - | 29 W/m² | - |
| 1788361586 | 20.56° C | 34% | 1026.8 hPa | 0 mm | - | 24 W/m² | - |
| 1788361281 | 20.56° C | 35% | 1026.8 hPa | 0 mm | - | 35 W/m² | - |
| 1788360976 | 20° C | 35% | 1026.8 hPa | 0 mm | - | 25 W/m² | - |
| 1788360675 | 20° C | 36% | 1027 hPa | 0 mm | - | 23 W/m² | - |
| 1788360373 | 19.44° C | 36% | 1026.8 hPa | 0 mm | - | 24 W/m² | - |
| 1788360072 | 19.44° C | 38% | 1027 hPa | 0 mm | - | 40 W/m² | - |
| 1788359767 | 18.89° C | 38% | 1027 hPa | 0 mm | - | 22 W/m² | - |
| 1788359463 | 18.89° C | 39% | 1026.8 hPa | 0 mm | - | 21 W/m² | - |
| 1788359158 | 18.33° C | 40% | 1026.7 hPa | 0 mm | - | 67 W/m² | - |
| 1788358854 | 18.33° C | 42% | 1026.7 hPa | 0 mm | - | 52 W/m² | - |
| 1788358548 | 18.33° C | 38% | 1026.6 hPa | 0 mm | - | 60 W/m² | - |
| 1788358243 | 17.78° C | 40% | 1026.6 hPa | 0 mm | - | 19 W/m² | - |
| 1788357944 | 17.78° C | 41% | 1026.7 hPa | 0 mm | - | 19 W/m² | - |
| 1788357639 | 17.78° C | 40% | 1026.8 hPa | 0 mm | - | 18 W/m² | - |
| 1788357338 | 18.33° C | 40% | 1026.3 hPa | 0 mm | - | 17 W/m² | - |
| 1788357033 | 18.33° C | 38% | 1026.5 hPa | 0 mm | - | 16 W/m² | - |
| 1788356729 | 17.78° C | 38% | 1026.3 hPa | 0 mm | - | 18 W/m² | - |
| 1788356424 | 17.78° C | 40% | 1026.5 hPa | 0 mm | - | 16 W/m² | - |
| 1788356123 | 17.22° C | 42% | 1026.3 hPa | 0 mm | - | 15 W/m² | - |
* Rain latest hour (hover to see other rain measurements)
** Current wind speed in m/s (hover to see current wind gust speed)